Theta_e
287 282 278 281 282 283 282 280 278 282 286 284 283 284 286 289 289 289 289 290 293 295 302 305 305 305 311 324 328 330 334 335 333 331 330 330 329 331 332 333 333 332 333 333
282 279 285 285 284 283 282 279 279 283 286 285 283 283 287 288 288 289 290 290 291 294 298 304 305 302 303 312 325 328 331 334 334 334 332 329 331 332 332 334 333 333 333 333
281 284 288 286 283 282 282 280 281 281 284 286 284 282 285 288 289 290 291 292 292 294 296 302 303 303 302 301 308 322 328 331 334 335 331 325 326 328 329 331 332 333 333 333
282 286 285 283 282 283 278 285 285 283 281 278 282 273 281 284 284 287 289 290 293 296 298 302 303 305 307 309 308 317 322 324 327 330 330 326 328 326 327 330 332 334 334 334
281 284 283 281 283 286 281 287 286 286 283 279 279 275 278 283 282 286 289 293 295 297 298 303 304 304 304 306 307 310 311 312 317 322 326 326 322 324 322 325 327 327 331 332
285 288 286 285 288 288 289 287 286 284 279 273 278 275 276 279 283 290 294 298 299 300 301 301 302 303 301 303 303 303 304 305 307 310 312 315 316 317 322 323 320 321 326 330
283 285 287 289 285 289 286 281 273 271 270 273 282 278 278 285 290 291 294 297 297 297 297 296 296 296 297 298 300 300 301 301 302 303 305 305 306 310 312 317 323 323 324 326
276 273 284 291 287 285 285 284 276 267 272 274 283 277 282 295 298 297 297 296 295 294 294 293 293 294 295 296 297 298 298 297 299 301 301 300 301 303 305 307 310 316 322 324
278 277 286 288 290 290 286 283 286 280 281 276 279 285 292 294 293 294 293 292 292 293 293 293 293 293 293 293 293 294 295 296 296 297 297 297 298 298 298 299 302 305 309 316
282 276 285 288 293 293 289 290 280 280 272 274 279 280 279 288 288 289 289 289 290 292 293 292 292 292 292 292 292 293 293 293 293 294 295 295 295 296 296 297 298 301 304 308
282 281 281 286 286 285 285 285 286 287 283 278 276 280 285 287 290 288 288 290 289 289 290 290 291 291 292 292 292 291 290 290 290 291 292 293 293 294 295 296 297 299 302 304
283 282 278 280 288 291 289 287 286 281 280 282 281 278 287 287 287 288 289 290 290 289 289 289 288 289 288 288 289 289 289 289 289 290 291 291 293 293 293 294 295 297 299 302
284 280 274 276 282 287 284 286 288 288 287 282 279 278 286 286 286 287 286 288 288 288 288 287 287 286 287 287 288 288 288 288 289 289 289 289 290 290 290 291 293 295 297 300
289 282 275 270 275 284 281 286 288 287 282 283 281 279 282 283 283 284 285 286 287 287 287 286 286 285 286 286 286 287 288 288 288 288 288 287 288 288 289 291 292 294 296 298
286 278 281 282 284 286 282 282 283 283 285 283 282 279 281 283 284 284 284 285 285 284 285 284 284 284 285 285 285 286 287 287 288 287 287 287 288 288 289 290 291 292 295 297
283 278 281 280 286 287 281 282 282 282 283 286 284 280 286 286 285 283 283 283 283 283 284 284 283 283 283 283 283 284 286 285 286 286 285 286 286 287 287 289 289 291 293 297
281 280 280 278 284 285 278 280 283 282 283 284 278 283 285 282 281 281 282 282 281 282 282 282 282 282 282 282 283 284 285 285 285 284 284 284 284 284 286 287 288 289 291 294
281 281 281 278 282 273 282 285 286 283 283 284 284 284 284 282 283 282 282 281 280 281 281 281 281 281 282 282 283 284 285 284 284 283 282 283 282 283 285 286 287 288 290 291
284 282 279 276 278 280 282 282 281 280 281 285 283 284 285 286 287 282 283 282 281 280 281 281 281 281 281 282 283 283 283 283 283 281 281 281 282 282 284 284 285 287 288 290
285 283 281 278 276 271 278 282 286 287 277 284 285 284 283 283 278 279 282 281 280 280 280 279 280 281 281 281 283 281 280 281 280 281 280 281 282 282 282 283 284 286 287 289
279 279 277 276 277 279 282 283 286 276 275 284 284 285 283 281 282 283 283 281 280 279 278 278 278 278 279 281 282 280 280 279 281 280 279 280 281 282 282 283 284 285 285 286
279 278 276 277 273 269 283 283 278 282 286 284 283 284 285 284 284 283 281 279 278 276 276 276 276 277 279 280 281 279 278 281 280 278 277 278 280 281 281 281 282 283 284 284
274 281 279 280 278 284 284 283 285 286 285 284 284 283 285 283 281 280 278 279 276 275 273 275 274 276 278 279 280 278 279 281 281 277 276 277 279 279 280 279 280 280 281 281
284 284 281 280 282 283 282 284 284 285 283 283 283 283 282 280 279 278 278 277 275 273 274 274 273 273 274 277 279 280 281 281 280 278 277 277 277 278 279 278 278 278 278 279
283 283 280 280 282 283 282 283 282 283 284 283 282 281 280 280 277 276 275 276 275 274 274 274 274 274 274 276 278 280 280 281 279 279 277 276 276 276 276 277 278 277 278 280
283 280 275 277 281 282 281 284 285 281 282 282 281 280 279 278 277 276 275 275 275 274 275 275 275 274 274 275 277 278 280 280 279 278 277 276 275 275 275 275 275 279 279 279
Wind_Speed
2 0 6 10 10 10 8 11 16 22 21 24 21 24 23 30 20 24 20 21 26 24 23 15 15 18 17 16 19 18 18 17 12 10 11 9 12 10 9 8 11 11 10 11
3 8 10 6 7 11 12 11 23 23 23 19 26 29 26 24 29 23 23 23 26 26 23 19 18 13 13 18 18 18 18 17 15 12 11 4 9 7 6 7 9 10 12 12
6 7 4 5 4 10 17 11 20 19 24 25 23 29 32 19 23 30 27 29 28 27 25 18 15 14 12 10 15 15 16 16 16 15 7 3 5 4 4 7 7 10 12 12
6 4 3 2 6 8 13 6 15 17 12 13 7 17 29 22 24 27 19 24 26 28 24 20 10 8 3 3 7 9 8 7 6 9 10 9 8 7 5 6 3 7 13 13
10 4 4 5 8 5 11 9 12 14 14 11 19 8 20 16 23 21 20 23 25 23 19 9 13 13 11 10 11 11 13 11 9 7 8 8 6 4 3 5 6 2 5 6
11 3 4 7 6 11 14 10 11 4 2 6 9 7 20 6 9 11 11 10 8 16 19 17 17 17 14 15 15 13 15 14 13 13 10 9 7 3 4 5 4 2 4 4
9 4 3 4 4 3 3 4 5 6 2 8 8 11 13 22 22 16 4 15 17 16 19 18 19 17 19 16 15 14 15 15 13 14 11 9 6 3 4 4 5 8 4 6
5 9 2 3 5 7 9 5 2 6 6 18 17 8 8 15 20 18 17 18 20 19 19 20 19 18 18 16 15 15 14 14 13 9 8 7 8 4 3 4 2 4 4 7
5 8 6 13 16 4 1 4 5 6 9 7 6 6 1 14 18 17 19 20 19 18 18 18 18 16 15 14 15 14 12 11 11 10 7 9 7 8 6 6 4 2 5 6
5 9 6 6 3 4 2 5 3 1 5 6 3 6 13 10 14 16 18 18 17 16 17 17 15 15 11 10 11 12 11 12 11 9 9 8 7 6 5 5 5 6 7 7
1 2 11 9 2 5 5 3 3 4 4 5 6 4 13 15 13 14 16 16 15 16 15 14 14 11 10 10 12 12 12 12 10 11 10 7 7 8 9 8 8 8 9 9
2 3 7 13 15 3 1 4 4 4 4 4 4 4 12 14 16 15 14 14 15 16 14 15 14 13 10 14 15 9 11 14 13 12 11 11 10 9 7 7 9 10 11 11
3 2 6 11 4 4 7 6 7 8 4 3 5 4 9 14 15 14 14 14 13 14 17 14 12 14 19 21 18 18 17 16 16 14 12 10 10 9 9 9 10 10 12 13
1 3 7 6 9 5 14 11 12 5 3 6 4 5 12 14 15 16 17 15 13 14 15 15 17 19 16 17 17 16 15 14 14 12 11 11 13 13 13 13 12 12 12 13
2 5 3 9 13 5 13 18 18 10 13 5 7 8 11 12 11 10 11 14 15 16 15 16 15 14 16 15 14 13 11 11 10 12 14 15 15 14 13 15 14 13 13 13
1 4 3 6 6 5 9 14 16 15 15 5 7 9 7 5 9 17 17 16 17 13 15 16 16 17 16 15 14 13 10 13 14 10 12 12 13 14 14 14 16 16 14 13
1 2 3 5 5 7 3 9 8 8 16 7 9 5 6 11 16 16 16 16 16 17 15 17 17 15 13 13 12 12 12 13 13 15 15 14 15 16 16 16 15 17 16 14
2 1 2 5 4 2 3 10 8 7 12 13 10 5 3 7 10 13 14 12 13 14 16 15 12 11 12 12 13 13 13 13 15 15 14 15 16 16 17 16 16 16 14 14
8 2 3 2 3 2 3 7 7 5 9 11 12 13 10 5 0 12 14 12 12 14 13 11 11 12 11 13 13 13 13 13 13 16 14 15 16 16 16 16 17 15 14 14
4 2 3 3 3 1 2 13 12 5 2 13 12 11 11 12 7 5 10 11 13 13 11 12 12 12 12 12 12 13 13 13 14 15 14 14 15 15 17 17 16 14 13 13
3 2 3 4 3 3 9 15 10 2 5 10 9 8 6 6 4 3 7 11 12 11 13 13 12 11 11 12 12 14 13 15 14 12 12 13 15 16 17 16 14 13 13 11
2 3 2 3 2 3 13 4 5 5 3 7 8 11 7 7 7 8 10 11 11 13 12 11 9 11 11 12 11 14 15 12 10 10 10 13 14 12 15 17 17 15 14 12
1 2 2 2 1 4 5 6 5 7 6 6 9 10 8 8 9 9 9 10 8 9 8 8 7 9 11 12 11 12 13 14 11 10 11 10 12 12 13 15 16 13 15 12
1 3 1 2 3 4 5 5 7 6 7 8 7 8 8 8 9 8 8 9 10 9 9 9 10 10 11 11 12 11 11 11 10 10 10 10 9 11 11 11 12 13 15 13
1 2 1 1 3 5 5 5 4 4 5 5 7 10 9 8 9 7 8 10 8 9 10 9 10 11 12 11 11 13 13 12 12 12 11 11 9 10 10 9 11 12 16 19
2 2 2 2 2 1 3 5 5 3 5 6 7 8 9 8 8 6 6 6 7 8 9 10 11 12 12 12 12 13 12 12 12 10 9 8 8 8 8 9 9 18 22 28
Wind_Direction
16 151 213 220 213 242 259 269 272 269 280 291 281 278 276 287 274 271 267 266 276 272 274 239 226 224 217 201 189 183 184 191 175 178 176 187 199 198 191 191 186 184 179 178
28 242 241 221 215 240 253 259 264 276 276 276 280 284 276 266 268 262 266 259 257 272 271 253 228 213 202 200 192 187 190 183 184 187 193 175 186 199 203 190 180 183 185 177
195 235 166 186 235 252 256 244 268 266 295 286 277 276 281 271 255 265 256 253 249 253 256 245 232 217 206 206 191 189 189 187 186 183 156 93 100 98 145 194 194 187 183 183
236 274 234 217 233 213 279 223 268 276 287 286 44 293 278 285 272 263 255 242 245 242 237 232 214 91 75 63 111 109 108 121 138 146 162 170 174 174 199 195 212 196 187 187
262 264 233 230 232 165 238 263 277 270 272 307 286 256 283 271 282 281 266 245 242 225 219 112 93 87 84 80 78 83 88 74 73 94 137 144 136 130 130 126 125 65 299 207
258 254 224 225 247 218 256 295 260 244 197 264 290 198 288 304 273 273 326 67 76 102 99 95 87 83 73 63 65 67 76 68 65 71 61 78 77 98 143 174 121 212 65 265
309 268 260 183 244 259 93 14 323 342 332 256 342 302 265 297 292 273 35 79 72 68 76 77 72 66 61 51 53 57 60 61 53 62 60 54 59 62 72 9 118 141 220 229
337 326 309 131 223 292 295 156 230 272 301 305 307 249 309 352 56 58 64 71 69 59 60 60 60 60 60 54 55 56 52 56 51 45 53 55 46 35 23 51 349 53 214 236
314 271 310 302 282 183 49 204 208 271 265 277 259 282 250 36 39 49 59 54 55 58 56 57 55 56 56 50 52 51 47 53 46 40 30 40 30 24 4 359 357 312 270 273
269 297 288 323 353 333 207 312 332 245 293 282 309 315 346 28 42 40 47 47 53 55 54 51 50 52 54 57 62 60 52 48 41 35 31 25 8 4 354 353 334 306 295 290
229 204 298 312 102 289 324 338 308 267 223 306 317 35 353 4 32 52 50 46 49 51 51 47 44 43 48 58 58 51 45 41 35 31 22 12 5 355 350 343 324 305 295 280
299 287 289 285 291 228 286 292 269 273 319 259 246 69 348 10 12 22 34 38 45 52 48 42 33 27 30 47 47 40 37 30 21 21 9 11 3 354 343 321 305 302 287 281
339 303 312 336 8 59 304 300 277 261 249 284 310 16 360 20 15 22 25 29 31 32 41 39 30 19 24 27 25 22 24 13 18 11 2 354 353 342 328 316 308 300 287 277
298 252 179 217 242 327 337 0 343 292 272 323 54 65 24 18 17 15 20 21 22 28 29 30 24 20 18 26 20 15 11 5 4 355 353 355 354 346 334 323 315 299 288 283
81 267 226 255 281 196 40 11 11 17 334 26 37 68 31 20 13 11 21 30 25 19 20 26 26 16 17 21 13 10 3 357 0 357 1 355 346 335 326 328 318 306 299 292
356 273 310 278 194 230 60 17 30 18 1 51 79 68 39 40 42 28 20 28 24 11 21 22 26 19 11 11 1 349 350 8 9 355 1 343 338 335 333 326 323 314 305 301
267 275 316 271 349 306 51 5 23 39 24 0 28 40 6 37 40 33 25 23 14 8 9 19 16 11 358 1 340 347 1 1 2 8 357 341 344 337 330 324 318 318 311 302
256 232 242 280 320 29 100 39 357 59 43 24 26 21 67 97 83 51 38 23 18 9 11 14 12 0 360 346 349 354 4 2 8 0 351 348 341 336 330 325 321 315 307 302
200 341 284 313 325 148 71 28 340 349 47 26 19 15 7 299 138 47 40 29 20 15 14 0 2 6 353 355 345 358 7 4 2 2 353 350 342 335 331 328 323 316 311 302
97 265 263 343 296 308 22 328 328 279 96 5 10 15 5 19 31 15 21 27 25 23 7 360 6 7 3 354 351 6 9 3 5 357 354 348 340 343 342 332 327 320 316 306
352 10 17 334 310 105 4 320 315 12 330 353 356 10 26 43 71 55 34 34 30 17 8 6 8 11 355 349 353 9 3 7 358 350 344 349 351 352 349 342 341 336 335 333
27 334 345 316 326 323 5 29 51 332 34 357 353 352 53 55 57 44 37 38 23 11 5 8 5 7 351 353 357 8 9 350 351 347 347 358 355 354 355 354 356 355 356 356
125 351 325 7 41 53 49 47 42 8 6 10 1 354 40 47 39 35 30 28 30 19 4 352 352 359 6 359 4 3 357 348 349 350 350 356 358 0 3 7 7 8 10 10
77 355 187 159 126 100 58 47 25 31 19 46 26 14 37 43 33 35 25 19 12 9 10 355 351 360 2 357 4 0 358 352 350 356 357 356 359 2 8 19 17 16 21 18
40 31 324 84 118 128 104 80 19 11 55 64 58 38 37 42 35 26 19 12 16 11 8 7 359 356 355 352 1 359 0 353 0 3 4 2 359 360 10 15 22 24 26 25
115 129 116 252 46 341 82 54 33 12 50 46 51 55 47 46 32 26 32 19 16 11 9 9 6 354 350 355 357 359 359 357 9 6 8 357 356 2 7 16 6 21 30 30